Time,TemperatureF,DewpointF,PressureIn,WindDirection,WindDirectionDegrees,WindSpeedMPH,WindSpeedGustMPH,Humidity,HourlyPrecipIn,Conditions,Clouds,dailyrainin,SoftwareType,DateUTC
2013-07-26 00:01:00,68.9,62.9,30.09,SSE,160,0.0,0.0,81,0.00,FEW,SCT,0.00,WeatherDisplay:10.37,2013-07-26 04:01:00,
2013-07-26 00:02:00,68.8,62.8,30.09,SSE,160,0.0,0.0,81,0.00,FEW,SCT,0.00,WeatherDisplay:10.37,2013-07-26 04:02:00,
2013-07-26 00:07:00,68.9,62.9,30.09,SSE,160,0.0,0.0,81,0.00,FEW,SCT,0.00,WeatherDisplay:10.37,2013-07-26 04:07:00,
2013-07-26 00:12:00,68.8,63.1,30.08,SSE,160,0.0,0.0,82,0.00,FEW,SCT,0.00,WeatherDisplay:10.37,2013-07-26 04:12:00,
2013-07-26 00:17:00,68.8,63.1,30.08,SSE,160,0.0,0.0,82,0.00,FEW,SCT,0.00,WeatherDisplay:10.37,2013-07-26 04:17:00,
2013-07-26 00:22:00,68.8,63.1,30.08,SSE,160,0.0,0.0,82,0.00,FEW,SCT,0.00,WeatherDisplay:10.37,2013-07-26 04:22:00,
2013-07-26 00:27:00,68.6,62.9,30.09,ENE,62,0.0,0.0,82,0.00,FEW,SCT,0.00,WeatherDisplay:10.37,2013-07-26 04:27:00,
2013-07-26 00:32:00,68.6,62.9,30.09,ENE,62,0.0,0.0,82,0.00,FEW,SCT,0.00,WeatherDisplay:10.37,2013-07-26 04:32:00,
2013-07-26 00:37:00,68.7,63.4,30.09,ENE,62,0.0,0.0,83,0.00,FEW,SCT,0.00,WeatherDisplay:10.37,2013-07-26 04:37:00,
2013-07-26 00:42:00,68.5,63.2,30.09,ENE,62,0.0,0.0,83,0.00,FEW,SCT,0.00,WeatherDisplay:10.37,2013-07-26 04:42:00,
2013-07-26 00:47:00,68.4,63.1,30.09,ENE,62,0.0,0.0,83,0.00,FEW,SCT,0.00,WeatherDisplay:10.37,2013-07-26 04:47:00,
2013-07-26 00:52:00,68.3,63.0,30.09,ENE,62,0.0,0.0,83,0.00,FEW,SCT,0.00,WeatherDisplay:10.37,2013-07-26 04:52:00,
2013-07-26 00:57:00,68.0,62.7,30.09,ENE,62,0.0,0.0,83,0.00,FEW,SCT,0.00,WeatherDisplay:10.37,2013-07-26 04:57:00,
2013-07-26 01:02:00,67.8,62.5,30.09,ENE,62,0.0,0.0,83,0.00,CLR,SCT,0.00,WeatherDisplay:10.37,2013-07-26 05:02:00,
2013-07-26 01:07:00,67.7,62.4,30.09,ENE,62,0.0,0.0,83,0.00,CLR,SCT,0.00,WeatherDisplay:10.37,2013-07-26 05:07:00,
2013-07-26 01:12:00,67.7,62.4,30.09,ENE,62,0.0,0.0,83,0.00,CLR,SCT,0.00,WeatherDisplay:10.37,2013-07-26 05:12:00,
2013-07-26 01:17:00,67.6,62.3,30.09,ENE,62,0.0,0.0,83,0.00,CLR,SCT,0.00,WeatherDisplay:10.37,2013-07-26 05:17:00,
2013-07-26 01:22:00,67.3,62.0,30.09,ENE,62,0.0,0.0,83,0.00,CLR,SCT,0.00,WeatherDisplay:10.37,2013-07-26 05:22:00,
2013-07-26 01:27:00,67.2,61.9,30.09,ENE,62,0.0,0.0,83,0.00,CLR,SCT,0.00,WeatherDisplay:10.37,2013-07-26 05:27:00,
2013-07-26 01:32:00,67.1,61.8,30.09,ENE,62,0.0,0.0,83,0.00,CLR,SCT,0.00,WeatherDisplay:10.37,2013-07-26 05:32:00,
2013-07-26 01:37:00,67.0,62.0,30.09,ENE,62,0.0,0.0,84,0.00,CLR,SCT,0.00,WeatherDisplay:10.37,2013-07-26 05:37:00,
2013-07-26 01:42:00,66.9,61.9,30.09,ENE,62,0.0,0.0,84,0.00,CLR,SCT,0.00,WeatherDisplay:10.37,2013-07-26 05:42:00,
2013-07-26 01:47:00,66.8,61.8,30.09,ENE,62,0.0,0.0,84,0.00,CLR,SCT,0.00,WeatherDisplay:10.37,2013-07-26 05:47:00,
2013-07-26 01:52:00,66.8,61.8,30.09,ENE,62,0.0,0.0,84,0.00,CLR,SCT,0.00,WeatherDisplay:10.37,2013-07-26 05:52:00,
2013-07-26 01:57:00,66.5,61.6,30.09,ENE,62,0.0,0.0,84,0.00,CLR,SCT,0.00,WeatherDisplay:10.37,2013-07-26 05:57:00,
2013-07-26 02:02:00,66.6,61.3,30.09,ENE,62,0.0,0.0,83,0.00,CLR,SCT,0.00,WeatherDisplay:10.37,2013-07-26 06:02:00,
2013-07-26 02:07:00,66.7,61.4,30.08,ENE,62,0.0,0.0,83,0.00,CLR,SCT,0.00,WeatherDisplay:10.37,2013-07-26 06:07:00,
2013-07-26 02:12:00,66.7,61.4,30.08,ENE,62,0.0,0.0,83,0.00,CLR,SCT,0.00,WeatherDisplay:10.37,2013-07-26 06:12:00,
2013-07-26 02:17:00,66.7,61.4,30.08,ENE,62,0.0,0.0,83,0.00,CLR,SCT,0.00,WeatherDisplay:10.37,2013-07-26 06:17:00,
2013-07-26 02:22:00,66.8,61.5,30.08,ENE,62,0.0,0.0,83,0.00,CLR,SCT,0.00,WeatherDisplay:10.37,2013-07-26 06:22:00,
2013-07-26 02:27:00,66.9,61.6,30.08,ENE,62,0.0,0.0,83,0.00,CLR,SCT,0.00,WeatherDisplay:10.37,2013-07-26 06:27:00,
2013-07-26 02:32:00,66.8,61.5,30.08,ENE,62,0.0,0.0,83,0.00,CLR,SCT,0.00,WeatherDisplay:10.37,2013-07-26 06:32:00,
2013-07-26 02:37:00,66.5,61.2,30.08,ENE,62,0.0,0.0,83,0.00,CLR,SCT,0.00,WeatherDisplay:10.37,2013-07-26 06:37:00,
2013-07-26 02:42:00,66.4,61.5,30.08,ENE,62,0.0,0.0,84,0.00,CLR,SCT,0.00,WeatherDisplay:10.37,2013-07-26 06:42:00,
2013-07-26 02:47:00,66.3,61.4,30.08,ENE,62,0.0,0.0,84,0.00,CLR,SCT,0.00,WeatherDisplay:10.37,2013-07-26 06:47:00,
2013-07-26 02:52:00,66.3,61.4,30.08,ENE,62,0.0,0.0,84,0.00,CLR,SCT,0.00,WeatherDisplay:10.37,2013-07-26 06:52:00,
2013-07-26 02:57:00,66.2,61.3,30.08,ENE,62,0.0,0.0,84,0.00,CLR,SCT,0.00,WeatherDisplay:10.37,2013-07-26 06:57:00,
2013-07-26 03:02:00,66.3,61.4,30.08,ENE,62,0.0,0.0,84,0.00,CLR,SCT,0.00,WeatherDisplay:10.37,2013-07-26 07:02:00,
2013-07-26 03:07:00,66.1,61.2,30.08,ENE,62,0.0,0.0,84,0.00,CLR,SCT,0.00,WeatherDisplay:10.37,2013-07-26 07:07:00,
2013-07-26 03:12:00,66.3,61.4,30.08,ENE,62,0.0,0.0,84,0.00,CLR,SCT,0.00,WeatherDisplay:10.37,2013-07-26 07:12:00,
2013-07-26 03:17:00,66.2,61.3,30.08,ENE,62,0.0,0.0,84,0.00,CLR,SCT,0.00,WeatherDisplay:10.37,2013-07-26 07:17:00,
2013-07-26 03:22:00,66.3,61.7,30.08,ENE,62,0.0,0.0,85,0.00,CLR,SCT,0.00,WeatherDisplay:10.37,2013-07-26 07:22:00,
2013-07-26 03:27:00,66.2,61.6,30.08,ENE,62,0.0,0.0,85,0.00,CLR,SCT,0.00,WeatherDisplay:10.37,2013-07-26 07:27:00,
2013-07-26 03:32:00,66.1,61.5,30.08,ENE,62,0.0,0.0,85,0.00,CLR,SCT,0.00,WeatherDisplay:10.37,2013-07-26 07:32:00,
2013-07-26 03:37:00,66.1,61.2,30.08,ENE,62,0.0,0.0,84,0.00,CLR,SCT,0.00,WeatherDisplay:10.37,2013-07-26 07:37:00,
2013-07-26 03:42:00,66.1,61.2,30.08,ENE,62,0.0,0.0,84,0.00,CLR,SCT,0.00,WeatherDisplay:10.37,2013-07-26 07:42:00,
2013-07-26 03:47:00,66.1,60.8,30.08,ENE,62,0.0,0.0,83,0.00,CLR,SCT,0.00,WeatherDisplay:10.37,2013-07-26 07:47:00,
2013-07-26 03:52:00,66.2,60.9,30.08,ENE,62,0.0,0.0,83,0.00,CLR,SCT,0.00,WeatherDisplay:10.37,2013-07-26 07:52:00,
2013-07-26 03:57:00,66.1,60.8,30.08,ENE,62,0.0,0.0,83,0.00,CLR,SCT,0.00,WeatherDisplay:10.37,2013-07-26 07:57:00,
2013-07-26 04:02:00,66.0,60.7,30.08,ENE,62,0.0,0.0,83,0.00,OVC,SCT,0.00,WeatherDisplay:10.37,2013-07-26 08:02:00,
2013-07-26 04:07:00,66.1,60.8,30.08,ENE,62,0.0,0.0,83,0.00,OVC,SCT,0.00,WeatherDisplay:10.37,2013-07-26 08:07:00,
2013-07-26 04:12:00,66.2,60.9,30.08,ENE,62,0.0,0.0,83,0.00,OVC,SCT,0.00,WeatherDisplay:10.37,2013-07-26 08:12:00,
2013-07-26 04:17:00,66.2,60.9,30.08,ENE,62,0.0,0.0,83,0.00,OVC,SCT,0.00,WeatherDisplay:10.37,2013-07-26 08:17:00,
2013-07-26 04:22:00,66.1,61.2,30.08,ENE,62,0.0,0.0,84,0.00,OVC,SCT,0.00,WeatherDisplay:10.37,2013-07-26 08:22:00,
2013-07-26 04:27:00,66.1,61.2,30.08,ENE,62,0.0,0.0,84,0.00,OVC,SCT,0.00,WeatherDisplay:10.37,2013-07-26 08:27:00,
2013-07-26 04:32:00,66.1,61.2,30.09,ENE,62,0.0,0.0,84,0.00,OVC,SCT,0.00,WeatherDisplay:10.37,2013-07-26 08:32:00,
2013-07-26 04:33:00,66.0,61.1,30.09,ENE,62,0.0,0.0,84,0.00,OVC,SCT,0.00,WeatherDisplay:10.37,2013-07-26 08:33:00,
2013-07-26 04:38:00,66.0,61.1,30.09,ENE,62,0.0,0.0,84,0.00,OVC,SCT,0.00,WeatherDisplay:10.37,2013-07-26 08:38:00,
2013-07-26 04:43:00,65.9,61.0,30.09,ENE,62,0.0,0.0,84,0.00,OVC,SCT,0.00,WeatherDisplay:10.37,2013-07-26 08:43:00,
2013-07-26 04:48:00,66.0,61.1,30.09,ENE,62,0.0,0.0,84,0.00,OVC,SCT,0.00,WeatherDisplay:10.37,2013-07-26 08:48:00,
2013-07-26 04:53:00,65.9,61.3,30.09,ENE,62,0.0,0.0,85,0.00,OVC,SCT,0.00,WeatherDisplay:10.37,2013-07-26 08:53:00,
2013-07-26 04:58:00,65.9,61.3,30.09,ENE,62,0.0,0.0,85,0.00,OVC,SCT,0.00,WeatherDisplay:10.37,2013-07-26 08:58:00,
2013-07-26 05:03:00,65.8,61.2,30.09,ENE,62,0.0,0.0,85,0.00,OVC,SCT,0.00,WeatherDisplay:10.37,2013-07-26 09:03:00,
2013-07-26 05:08:00,65.8,61.2,30.09,ENE,62,0.0,0.0,85,0.00,OVC,SCT,0.00,WeatherDisplay:10.37,2013-07-26 09:08:00,
2013-07-26 05:13:00,65.6,61.0,30.09,ENE,62,0.0,0.0,85,0.00,OVC,SCT,0.00,WeatherDisplay:10.37,2013-07-26 09:13:00,
2013-07-26 05:18:00,65.2,60.6,30.09,ENE,62,0.0,0.0,85,0.00,OVC,SCT,0.00,WeatherDisplay:10.37,2013-07-26 09:18:00,
2013-07-26 05:23:00,65.2,60.9,30.10,ENE,62,0.0,0.0,86,0.00,OVC,SCT,0.00,WeatherDisplay:10.37,2013-07-26 09:23:00,
2013-07-26 05:28:00,65.4,61.1,30.10,ENE,62,0.0,0.0,86,0.00,OVC,SCT,0.00,WeatherDisplay:10.37,2013-07-26 09:28:00,
2013-07-26 05:33:00,65.4,61.1,30.10,ENE,62,0.0,0.0,86,0.00,OVC,SCT,0.00,WeatherDisplay:10.37,2013-07-26 09:33:00,
2013-07-26 05:38:00,65.5,61.2,30.10,ENE,62,0.0,0.0,86,0.00,OVC,SCT,0.00,WeatherDisplay:10.37,2013-07-26 09:38:00,
2013-07-26 05:43:00,65.5,61.2,30.10,ENE,62,0.0,0.0,86,0.00,OVC,SCT,0.00,WeatherDisplay:10.37,2013-07-26 09:43:00,
2013-07-26 05:48:00,65.5,61.2,30.10,ENE,62,0.0,0.0,86,0.00,OVC,SCT,0.00,WeatherDisplay:10.37,2013-07-26 09:48:00,
2013-07-26 05:53:00,65.2,60.9,30.10,ENE,62,0.0,0.0,86,0.00,OVC,SCT,0.00,WeatherDisplay:10.37,2013-07-26 09:53:00,
2013-07-26 05:58:00,65.0,61.1,30.10,ENE,62,0.0,0.0,87,0.00,OVC,SCT,0.00,WeatherDisplay:10.37,2013-07-26 09:58:00,
2013-07-26 06:03:00,65.0,61.1,30.10,ENE,62,0.0,0.0,87,0.00,OVC,SCT,0.00,WeatherDisplay:10.37,2013-07-26 10:03:00,
2013-07-26 06:08:00,64.9,61.0,30.10,ENE,62,0.0,0.0,87,0.00,OVC,SCT,0.00,WeatherDisplay:10.37,2013-07-26 10:08:00,
2013-07-26 06:13:00,64.9,61.0,30.10,ENE,62,0.0,0.0,87,0.00,OVC,SCT,0.00,WeatherDisplay:10.37,2013-07-26 10:13:00,
2013-07-26 06:18:00,64.9,61.0,30.11,ENE,62,0.0,0.0,87,0.00,OVC,SCT,0.00,WeatherDisplay:10.37,2013-07-26 10:18:00,
2013-07-26 06:23:00,64.7,60.8,30.11,ENE,62,0.0,0.0,87,0.00,OVC,SCT,0.00,WeatherDisplay:10.37,2013-07-26 10:23:00,
2013-07-26 06:28:00,64.7,61.1,30.11,ENE,62,0.0,0.0,88,0.00,OVC,SCT,0.00,WeatherDisplay:10.37,2013-07-26 10:28:00,
2013-07-26 06:33:00,64.6,61.0,30.11,ENE,62,0.0,0.0,88,0.00,OVC,SCT,0.00,WeatherDisplay:10.37,2013-07-26 10:33:00,
2013-07-26 06:38:00,64.5,60.9,30.11,ENE,62,0.0,0.0,88,0.00,OVC,SCT,0.00,WeatherDisplay:10.37,2013-07-26 10:38:00,
2013-07-26 06:43:00,64.5,60.9,30.11,ENE,62,0.0,0.0,88,0.00,OVC,SCT,0.00,WeatherDisplay:10.37,2013-07-26 10:43:00,
2013-07-26 06:48:00,64.1,60.5,30.11,ENE,62,0.0,0.0,88,0.00,OVC,SCT,0.00,WeatherDisplay:10.37,2013-07-26 10:48:00,
2013-07-26 06:53:00,64.2,60.6,30.11,ENE,62,0.0,0.0,88,0.00,OVC,SCT,0.00,WeatherDisplay:10.37,2013-07-26 10:53:00,
2013-07-26 06:58:00,64.3,60.7,30.12,ENE,62,0.0,0.0,88,0.00,OVC,SCT,0.00,WeatherDisplay:10.37,2013-07-26 10:58:00,
2013-07-26 07:03:00,64.3,60.7,30.12,ENE,62,0.0,0.0,88,0.00,BKN,SCT,0.00,WeatherDisplay:10.37,2013-07-26 11:03:00,
2013-07-26 07:08:00,64.3,61.0,30.12,ENE,62,0.0,0.0,89,0.00,BKN,SCT,0.00,WeatherDisplay:10.37,2013-07-26 11:08:00,
2013-07-26 07:13:00,64.2,60.9,30.12,ENE,62,0.0,0.0,89,0.00,BKN,SCT,0.00,WeatherDisplay:10.37,2013-07-26 11:13:00,
2013-07-26 07:18:00,64.2,60.6,30.12,ENE,62,0.0,0.0,88,0.00,BKN,SCT,0.00,WeatherDisplay:10.37,2013-07-26 11:18:00,
2013-07-26 07:23:00,64.3,60.7,30.12,ENE,62,0.0,0.0,88,0.00,BKN,SCT,0.00,WeatherDisplay:10.37,2013-07-26 11:23:00,
2013-07-26 07:28:00,64.5,60.9,30.12,ENE,62,0.0,0.0,88,0.00,BKN,SCT,0.00,WeatherDisplay:10.37,2013-07-26 11:28:00,
2013-07-26 07:33:00,64.6,61.0,30.12,ENE,62,0.0,0.0,88,0.00,BKN,SCT,0.00,WeatherDisplay:10.37,2013-07-26 11:33:00,
2013-07-26 07:38:00,64.7,61.1,30.13,ENE,62,0.0,0.0,88,0.00,BKN,SCT,0.00,WeatherDisplay:10.37,2013-07-26 11:38:00,
2013-07-26 07:43:00,64.7,61.1,30.13,ENE,78,0.0,0.0,88,0.00,BKN,SCT,0.00,WeatherDisplay:10.37,2013-07-26 11:43:00,
2013-07-26 07:48:00,64.6,61.0,30.13,ENE,78,0.0,0.0,88,0.00,BKN,SCT,0.00,WeatherDisplay:10.37,2013-07-26 11:48:00,
2013-07-26 07:53:00,64.8,61.2,30.13,ENE,78,0.0,0.0,88,0.00,BKN,SCT,0.00,WeatherDisplay:10.37,2013-07-26 11:53:00,
2013-07-26 07:58:00,64.9,61.0,30.13,ENE,78,0.0,0.0,87,0.00,BKN,SCT,0.00,WeatherDisplay:10.37,2013-07-26 11:58:00,
2013-07-26 08:03:00,65.1,61.2,30.13,ENE,78,0.0,0.0,87,0.00,OVC,SCT,0.00,WeatherDisplay:10.37,2013-07-26 12:03:00,
2013-07-26 08:08:00,65.2,61.3,30.14,NE,40,1.1,1.1,87,0.00,OVC,SCT,0.00,WeatherDisplay:10.37,2013-07-26 12:08:00,
2013-07-26 08:13:00,65.2,61.3,30.14,NE,40,0.0,0.0,87,0.00,OVC,SCT,0.00,WeatherDisplay:10.37,2013-07-26 12:13:00,
2013-07-26 08:18:00,65.5,61.6,30.14,NE,40,0.0,0.0,87,0.00,OVC,SCT,0.00,WeatherDisplay:10.37,2013-07-26 12:18:00,
2013-07-26 08:23:00,65.6,61.7,30.14,NE,40,0.0,0.0,87,0.00,OVC,SCT,0.00,WeatherDisplay:10.37,2013-07-26 12:23:00,
2013-07-26 08:29:00,65.8,61.9,30.14,ENE,69,1.1,1.1,87,0.00,OVC,SCT,0.00,WeatherDisplay:10.37,2013-07-26 12:29:00,
2013-07-26 08:34:00,65.8,61.9,30.14,East,92,3.5,3.5,87,0.00,OVC,SCT,0.00,WeatherDisplay:10.37,2013-07-26 12:34:00,
2013-07-26 08:39:00,65.9,61.6,30.14,East,85,3.5,3.5,86,0.00,OVC,SCT,0.00,WeatherDisplay:10.37,2013-07-26 12:39:00,
2013-07-26 08:44:00,66.0,61.7,30.14,NE,52,0.0,0.0,86,0.00,OVC,SCT,0.00,WeatherDisplay:10.37,2013-07-26 12:44:00,
2013-07-26 08:49:00,66.1,61.8,30.14,NE,52,0.0,0.0,86,0.00,OVC,SCT,0.00,WeatherDisplay:10.37,2013-07-26 12:49:00,
2013-07-26 08:54:00,66.2,61.9,30.14,NE,52,0.0,0.0,86,0.00,OVC,SCT,0.00,WeatherDisplay:10.37,2013-07-26 12:54:00,
2013-07-26 08:59:00,66.6,62.3,30.14,NE,52,0.0,0.0,86,0.00,OVC,SCT,0.00,WeatherDisplay:10.37,2013-07-26 12:59:00,
2013-07-26 09:04:00,66.9,62.6,30.14,NE,52,0.0,0.0,86,0.00,BKN,SCT,0.00,WeatherDisplay:10.37,2013-07-26 13:04:00,
2013-07-26 09:09:00,67.0,62.4,30.14,East,97,0.0,0.0,85,0.00,BKN,SCT,0.00,WeatherDisplay:10.37,2013-07-26 13:09:00,
2013-07-26 09:14:00,67.0,62.0,30.15,NW,318,0.0,0.0,84,0.00,BKN,SCT,0.00,WeatherDisplay:10.37,2013-07-26 13:14:00,
2013-07-26 09:19:00,67.2,62.2,30.14,South,179,3.5,3.5,84,0.00,BKN,SCT,0.00,WeatherDisplay:10.37,2013-07-26 13:19:00,
2013-07-26 09:24:00,67.4,62.1,30.14,SSE,160,4.6,4.6,83,0.00,BKN,SCT,0.00,WeatherDisplay:10.37,2013-07-26 13:24:00,
2013-07-26 09:29:00,67.4,62.1,30.14,South,181,6.9,6.9,83,0.00,BKN,SCT,0.00,WeatherDisplay:10.37,2013-07-26 13:29:00,
2013-07-26 09:34:00,67.5,61.8,30.14,SSW,213,6.9,6.9,82,0.00,BKN,SCT,0.00,WeatherDisplay:10.37,2013-07-26 13:34:00,
2013-07-26 09:39:00,67.7,62.0,30.14,South,172,6.9,6.9,82,0.00,BKN,SCT,0.00,WeatherDisplay:10.37,2013-07-26 13:39:00,
2013-07-26 09:44:00,68.1,62.4,30.14,South,176,4.6,4.6,82,0.00,BKN,SCT,0.00,WeatherDisplay:10.37,2013-07-26 13:44:00,
2013-07-26 09:49:00,68.3,62.6,30.14,SSW,192,3.5,3.5,82,0.00,BKN,SCT,0.00,WeatherDisplay:10.37,2013-07-26 13:49:00,
2013-07-26 09:54:00,68.7,63.0,30.14,SSW,192,3.5,3.5,82,0.00,BKN,SCT,0.00,WeatherDisplay:10.37,2013-07-26 13:54:00,
2013-07-26 09:59:00,68.8,62.8,30.14,SSE,160,7.3,7.3,81,0.00,BKN,SCT,0.00,WeatherDisplay:10.37,2013-07-26 13:59:00,
2013-07-26 10:04:00,68.7,62.7,30.14,SSE,160,8.1,8.1,81,0.00,BKN,SCT,0.00,WeatherDisplay:10.37,2013-07-26 14:04:00,
2013-07-26 10:09:00,68.8,63.1,30.14,South,185,6.5,6.5,82,0.00,BKN,SCT,0.00,WeatherDisplay:10.37,2013-07-26 14:09:00,
2013-07-26 10:14:00,68.9,63.2,30.14,South,182,8.1,8.1,82,0.00,BKN,SCT,0.00,WeatherDisplay:10.37,2013-07-26 14:14:00,
2013-07-26 10:19:00,69.1,63.1,30.14,SSW,205,9.6,9.6,81,0.00,BKN,SCT,0.00,WeatherDisplay:10.37,2013-07-26 14:19:00,
2013-07-26 10:24:00,69.5,63.1,30.14,South,178,9.2,9.2,80,0.00,BKN,SCT,0.00,WeatherDisplay:10.37,2013-07-26 14:24:00,
2013-07-26 10:29:00,69.6,63.2,30.14,South,172,9.4,9.4,80,0.00,BKN,SCT,0.00,WeatherDisplay:10.37,2013-07-26 14:29:00,
2013-07-26 10:34:00,69.5,63.5,30.14,SSW,195,5.8,5.8,81,0.00,BKN,SCT,0.00,WeatherDisplay:10.37,2013-07-26 14:34:00,
2013-07-26 10:39:00,69.5,63.1,30.14,SSW,196,12.7,12.7,80,0.00,BKN,SCT,0.00,WeatherDisplay:10.37,2013-07-26 14:39:00,
2013-07-26 10:44:00,69.6,63.2,30.14,SSE,168,9.2,9.2,80,0.00,BKN,SCT,0.00,WeatherDisplay:10.37,2013-07-26 14:44:00,
2013-07-26 10:49:00,69.8,63.0,30.14,SSE,155,12.7,12.7,79,0.00,BKN,SCT,0.00,WeatherDisplay:10.37,2013-07-26 14:49:00,
2013-07-26 10:54:00,70.6,63.4,30.14,South,178,8.1,8.1,78,0.00,BKN,SCT,0.00,WeatherDisplay:10.37,2013-07-26 14:54:00,
2013-07-26 10:59:00,70.9,63.0,30.14,SE,140,12.7,12.7,76,0.00,BKN,SCT,0.00,WeatherDisplay:10.37,2013-07-26 14:59:00,
2013-07-26 11:04:00,70.6,62.7,30.14,South,184,10.4,10.4,76,0.00,OVC,SCT,0.00,WeatherDisplay:10.37,2013-07-26 15:04:00,
2013-07-26 11:09:00,70.6,63.1,30.14,SW,223,8.1,8.1,77,0.00,OVC,SCT,0.00,WeatherDisplay:10.37,2013-07-26 15:09:00,
2013-07-26 11:14:00,71.2,63.7,30.14,SSW,212,10.4,10.4,77,0.00,OVC,SCT,0.00,WeatherDisplay:10.37,2013-07-26 15:14:00,
2013-07-26 11:19:00,71.6,63.7,30.14,South,179,12.7,12.7,76,0.00,OVC,SCT,0.00,WeatherDisplay:10.37,2013-07-26 15:19:00,
2013-07-26 11:24:00,72.0,64.1,30.14,South,182,8.1,8.1,76,0.00,OVC,SCT,0.00,WeatherDisplay:10.37,2013-07-26 15:24:00,
2013-07-26 11:29:00,72.5,64.2,30.14,South,182,12.7,12.7,75,0.00,OVC,SCT,0.00,WeatherDisplay:10.37,2013-07-26 15:29:00,
2013-07-26 11:34:00,72.7,64.0,30.14,South,178,10.4,10.4,74,0.00,OVC,SCT,0.00,WeatherDisplay:10.37,2013-07-26 15:34:00,
2013-07-26 11:39:00,72.7,64.0,30.14,SSE,161,8.1,8.1,74,0.00,OVC,SCT,0.00,WeatherDisplay:10.37,2013-07-26 15:39:00,
2013-07-26 11:44:00,72.4,63.7,30.14,South,178,9.2,9.2,74,0.00,OVC,SCT,0.00,WeatherDisplay:10.37,2013-07-26 15:44:00,
2013-07-26 11:49:00,72.6,64.3,30.14,South,184,10.4,10.4,75,0.00,OVC,SCT,0.00,WeatherDisplay:10.37,2013-07-26 15:49:00,
2013-07-26 11:54:00,72.8,64.1,30.14,South,179,6.9,6.9,74,0.00,OVC,SCT,0.00,WeatherDisplay:10.37,2013-07-26 15:54:00,
2013-07-26 11:59:00,73.4,64.3,30.14,SSW,195,10.4,10.4,73,0.00,OVC,SCT,0.00,WeatherDisplay:10.37,2013-07-26 15:59:00,
2013-07-26 12:04:00,73.6,64.1,30.14,SSW,193,11.5,11.5,72,0.00,OVC,SCT,0.00,WeatherDisplay:10.37,2013-07-26 16:04:00,
2013-07-26 12:09:00,74.0,64.4,30.14,SE,144,8.1,8.1,72,0.00,OVC,SCT,0.00,WeatherDisplay:10.37,2013-07-26 16:09:00,
2013-07-26 12:14:00,74.4,64.4,30.13,South,171,6.9,6.9,71,0.00,OVC,SCT,0.00,WeatherDisplay:10.37,2013-07-26 16:14:00,
2013-07-26 12:19:00,74.9,64.9,30.13,SSE,154,11.5,11.5,71,0.00,OVC,SCT,0.00,WeatherDisplay:10.37,2013-07-26 16:19:00,
2013-07-26 12:24:00,75.3,64.5,30.13,SSE,167,10.4,10.4,69,0.00,OVC,SCT,0.00,WeatherDisplay:10.37,2013-07-26 16:24:00,
2013-07-26 12:29:00,75.5,65.1,30.13,South,174,12.7,12.7,70,0.00,OVC,SCT,0.00,WeatherDisplay:10.37,2013-07-26 16:29:00,
2013-07-26 12:34:00,75.8,65.4,30.13,SSE,158,9.2,9.2,70,0.00,OVC,SCT,0.00,WeatherDisplay:10.37,2013-07-26 16:34:00,
2013-07-26 12:39:00,76.0,64.7,30.12,South,185,10.4,10.4,68,0.00,OVC,SCT,0.00,WeatherDisplay:10.37,2013-07-26 16:39:00,
2013-07-26 12:44:00,75.6,64.7,30.13,SSW,209,11.5,11.5,69,0.00,OVC,SCT,0.00,WeatherDisplay:10.37,2013-07-26 16:44:00,
2013-07-26 12:49:00,75.5,64.2,30.13,South,189,8.1,8.1,68,0.00,OVC,SCT,0.00,WeatherDisplay:10.37,2013-07-26 16:49:00,
2013-07-26 12:54:00,75.5,64.7,30.13,South,176,10.4,10.4,69,0.00,OVC,SCT,0.00,WeatherDisplay:10.37,2013-07-26 16:54:00,
2013-07-26 12:59:00,75.2,64.4,30.12,South,182,8.1,8.1,69,0.00,OVC,SCT,0.00,WeatherDisplay:10.37,2013-07-26 16:59:00,
2013-07-26 13:04:00,75.0,64.6,30.12,SSW,199,8.1,8.1,70,0.00,BKN,SCT,0.00,WeatherDisplay:10.37,2013-07-26 17:04:00,
2013-07-26 13:09:00,75.3,64.5,30.12,ENE,73,8.1,8.1,69,0.00,BKN,SCT,0.00,WeatherDisplay:10.37,2013-07-26 17:09:00,
2013-07-26 13:14:00,75.6,64.7,30.12,SSW,199,6.9,6.9,69,0.00,BKN,SCT,0.00,WeatherDisplay:10.37,2013-07-26 17:14:00,
2013-07-26 13:19:00,76.6,66.1,30.12,South,181,9.2,9.2,70,0.00,BKN,SCT,0.00,WeatherDisplay:10.37,2013-07-26 17:19:00,
2013-07-26 13:24:00,77.2,65.0,30.12,SSW,206,6.9,6.9,66,0.00,BKN,SCT,0.00,WeatherDisplay:10.37,2013-07-26 17:24:00,
2013-07-26 13:29:00,77.8,65.1,30.12,South,175,11.5,11.5,65,0.00,BKN,SCT,0.00,WeatherDisplay:10.37,2013-07-26 17:29:00,
2013-07-26 13:34:00,77.8,65.1,30.12,SSE,168,5.9,5.9,65,0.00,BKN,SCT,0.00,WeatherDisplay:10.37,2013-07-26 17:34:00,
2013-07-26 13:39:00,77.7,65.5,30.12,SSE,161,9.2,9.2,66,0.00,BKN,SCT,0.00,WeatherDisplay:10.37,2013-07-26 17:39:00,
2013-07-26 13:44:00,77.3,64.7,30.12,South,174,6.9,6.9,65,0.00,BKN,SCT,0.00,WeatherDisplay:10.37,2013-07-26 17:44:00,
2013-07-26 13:49:00,77.1,64.5,30.11,South,181,8.2,8.2,65,0.00,BKN,SCT,0.00,WeatherDisplay:10.37,2013-07-26 17:49:00,
2013-07-26 13:54:00,77.0,64.8,30.11,South,178,5.8,5.8,66,0.00,BKN,SCT,0.00,WeatherDisplay:10.37,2013-07-26 17:54:00,
2013-07-26 13:59:00,77.0,65.2,30.11,South,179,11.5,11.5,67,0.00,BKN,SCT,0.00,WeatherDisplay:10.37,2013-07-26 17:59:00,
2013-07-26 14:04:00,76.8,65.0,30.11,South,174,9.2,9.2,67,0.00,SCT,,0.00,WeatherDisplay:10.37,2013-07-26 18:04:00,
2013-07-26 14:09:00,76.7,65.4,30.11,SSE,160,10.4,10.4,68,0.00,SCT,,0.00,WeatherDisplay:10.37,2013-07-26 18:09:00,
2013-07-26 14:14:00,77.0,65.7,30.11,South,189,10.4,10.4,68,0.00,SCT,,0.00,WeatherDisplay:10.37,2013-07-26 18:14:00,
2013-07-26 14:19:00,77.8,65.1,30.10,SSW,193,12.7,12.7,65,0.00,SCT,,0.00,WeatherDisplay:10.37,2013-07-26 18:19:00,
2013-07-26 14:24:00,77.6,65.4,30.10,SSE,155,13.8,13.8,66,0.00,SCT,,0.00,WeatherDisplay:10.37,2013-07-26 18:24:00,
2013-07-26 14:29:00,77.2,65.4,30.10,South,174,8.1,8.1,67,0.00,SCT,,0.00,WeatherDisplay:10.37,2013-07-26 18:29:00,
2013-07-26 14:34:00,77.3,66.0,30.10,SSE,164,9.2,9.2,68,0.00,SCT,,0.00,WeatherDisplay:10.37,2013-07-26 18:34:00,
2013-07-26 14:39:00,77.8,65.1,30.10,South,174,11.5,11.5,65,0.00,SCT,,0.00,WeatherDisplay:10.37,2013-07-26 18:39:00,
2013-07-26 14:44:00,78.3,66.0,30.10,South,188,9.2,9.2,66,0.00,SCT,,0.00,WeatherDisplay:10.37,2013-07-26 18:44:00,
2013-07-26 14:49:00,78.6,65.0,30.09,South,184,11.5,11.5,63,0.00,SCT,,0.00,WeatherDisplay:10.37,2013-07-26 18:49:00,
2013-07-26 14:54:00,79.1,65.9,30.09,South,185,13.8,13.8,64,0.00,SCT,,0.00,WeatherDisplay:10.37,2013-07-26 18:54:00,
2013-07-26 14:59:00,79.1,65.5,30.09,South,185,13.1,13.1,63,0.00,SCT,,0.00,WeatherDisplay:10.37,2013-07-26 18:59:00,
2013-07-26 15:04:00,79.7,66.5,30.09,SSE,162,9.2,9.2,64,0.00,SCT,,0.00,WeatherDisplay:10.37,2013-07-26 19:04:00,
2013-07-26 15:09:00,80.2,66.0,30.09,South,181,10.4,10.4,62,0.00,SCT,,0.00,WeatherDisplay:10.37,2013-07-26 19:09:00,
2013-07-26 15:14:00,80.2,65.6,30.09,SSE,162,12.7,12.7,61,0.00,SCT,,0.00,WeatherDisplay:10.37,2013-07-26 19:14:00,
2013-07-26 15:19:00,79.5,65.4,30.08,South,184,10.3,10.3,62,0.00,SCT,,0.00,WeatherDisplay:10.37,2013-07-26 19:19:00,
2013-07-26 15:24:00,79.4,65.3,30.08,South,189,6.9,6.9,62,0.00,SCT,,0.00,WeatherDisplay:10.37,2013-07-26 19:24:00,
2013-07-26 15:29:00,79.5,65.4,30.08,SW,215,11.5,11.5,62,0.00,SCT,,0.00,WeatherDisplay:10.37,2013-07-26 19:29:00,
2013-07-26 15:34:00,79.7,66.0,30.08,South,186,9.2,9.2,63,0.00,SCT,,0.00,WeatherDisplay:10.37,2013-07-26 19:34:00,
2013-07-26 15:39:00,79.5,65.4,30.08,SSE,168,9.2,9.2,62,0.00,SCT,,0.00,WeatherDisplay:10.37,2013-07-26 19:39:00,
2013-07-26 15:44:00,79.3,65.2,30.08,SSE,161,10.4,10.4,62,0.00,SCT,,0.00,WeatherDisplay:10.37,2013-07-26 19:44:00,
2013-07-26 15:49:00,79.2,66.0,30.08,SSW,202,10.4,10.4,64,0.00,SCT,,0.00,WeatherDisplay:10.37,2013-07-26 19:49:00,
2013-07-26 15:54:00,79.5,65.4,30.07,South,176,10.4,10.4,62,0.00,SCT,,0.00,WeatherDisplay:10.37,2013-07-26 19:54:00,
2013-07-26 15:59:00,80.0,66.3,30.08,SSW,192,7.8,7.8,63,0.00,SCT,,0.00,WeatherDisplay:10.37,2013-07-26 19:59:00,
2013-07-26 16:04:00,79.6,65.5,30.07,West,268,10.4,10.4,62,0.00,SCT,,0.00,WeatherDisplay:10.37,2013-07-26 20:04:00,
2013-07-26 16:09:00,79.5,65.8,30.07,South,184,11.5,11.5,63,0.00,SCT,,0.00,WeatherDisplay:10.37,2013-07-26 20:09:00,
2013-07-26 16:14:00,79.7,66.0,30.07,SSE,157,12.7,12.7,63,0.00,SCT,,0.00,WeatherDisplay:10.37,2013-07-26 20:14:00,
2013-07-26 16:19:00,79.6,65.9,30.07,South,172,11.5,11.5,63,0.00,SCT,,0.00,WeatherDisplay:10.37,2013-07-26 20:19:00,
2013-07-26 16:24:00,79.5,65.8,30.07,SSW,210,13.8,13.8,63,0.00,SCT,,0.00,WeatherDisplay:10.37,2013-07-26 20:24:00,
2013-07-26 16:29:00,79.1,65.9,30.07,South,176,13.8,13.8,64,0.00,SCT,,0.00,WeatherDisplay:10.37,2013-07-26 20:29:00,
2013-07-26 16:34:00,79.3,66.1,30.06,SSW,213,8.1,8.1,64,0.00,SCT,,0.00,WeatherDisplay:10.37,2013-07-26 20:34:00,
2013-07-26 16:39:00,79.3,66.5,30.06,SSE,150,9.2,9.2,65,0.00,SCT,,0.00,WeatherDisplay:10.37,2013-07-26 20:39:00,
2013-07-26 16:44:00,79.1,65.9,30.06,SSE,164,12.7,12.7,64,0.00,SCT,,0.00,WeatherDisplay:10.37,2013-07-26 20:44:00,
2013-07-26 16:49:00,78.9,65.7,30.06,South,178,11.5,11.5,64,0.00,SCT,,0.00,WeatherDisplay:10.37,2013-07-26 20:49:00,
2013-07-26 16:54:00,78.8,66.1,30.06,South,171,15.0,15.0,65,0.00,SCT,,0.00,WeatherDisplay:10.37,2013-07-26 20:54:00,
2013-07-26 16:59:00,78.5,65.8,30.06,SSE,147,10.4,10.4,65,0.00,SCT,,0.00,WeatherDisplay:10.37,2013-07-26 20:59:00,
2013-07-26 17:04:00,78.2,65.9,30.06,South,178,12.7,12.7,66,0.00,SCT,,0.00,WeatherDisplay:10.37,2013-07-26 21:04:00,
2013-07-26 17:09:00,78.3,65.6,30.06,SSW,200,10.4,10.4,65,0.00,SCT,,0.00,WeatherDisplay:10.37,2013-07-26 21:09:00,
2013-07-26 17:14:00,78.2,65.9,30.06,South,172,15.0,15.0,66,0.00,SCT,,0.00,WeatherDisplay:10.37,2013-07-26 21:14:00,
2013-07-26 17:19:00,78.0,65.8,30.06,South,179,12.7,12.7,66,0.00,SCT,,0.00,WeatherDisplay:10.37,2013-07-26 21:19:00,
2013-07-26 17:24:00,77.9,66.1,30.06,SSE,167,11.1,11.1,67,0.00,SCT,,0.00,WeatherDisplay:10.37,2013-07-26 21:24:00,
2013-07-26 17:29:00,77.8,65.6,30.06,South,185,13.8,13.8,66,0.00,SCT,,0.00,WeatherDisplay:10.37,2013-07-26 21:29:00,
2013-07-26 17:35:00,77.7,65.5,30.06,SSW,196,12.7,12.7,66,0.00,SCT,,0.00,WeatherDisplay:10.37,2013-07-26 21:35:00,
2013-07-26 17:40:00,77.5,65.3,30.06,South,176,13.8,13.8,66,0.00,SCT,,0.00,WeatherDisplay:10.37,2013-07-26 21:40:00,
2013-07-26 17:45:00,77.2,65.4,30.05,South,184,12.5,12.5,67,0.00,SCT,,0.00,WeatherDisplay:10.37,2013-07-26 21:45:00,
2013-07-26 17:50:00,77.2,65.8,30.05,South,181,9.0,15.0,68,0.00,SCT,SCT,0.00,WeatherDisplay:10.37,2013-07-26 21:50:00,
2013-07-26 17:55:00,77.3,66.4,30.05,SSE,167,9.2,9.2,69,0.00,SCT,,0.00,WeatherDisplay:10.37,2013-07-26 21:55:00,
2013-07-26 18:00:00,77.2,66.3,30.05,SSE,160,10.4,10.4,69,0.00,SCT,,0.00,WeatherDisplay:10.37,2013-07-26 22:00:00,
2013-07-26 18:05:00,77.2,65.9,30.05,SSW,196,9.2,9.2,68,0.00,SCT,,0.00,WeatherDisplay:10.37,2013-07-26 22:05:00,
2013-07-26 18:10:00,77.2,66.3,30.05,SSW,198,8.1,8.1,69,0.00,SCT,,0.00,WeatherDisplay:10.37,2013-07-26 22:10:00,
2013-07-26 18:15:00,76.7,65.8,30.05,South,185,15.0,15.0,69,0.00,SCT,,0.00,WeatherDisplay:10.37,2013-07-26 22:15:00,
2013-07-26 18:20:00,76.7,65.7,30.05,South,172,8.0,14.0,69,0.00,SCT,SCT,0.00,WeatherDisplay:10.37,2013-07-26 22:20:00,
2013-07-26 18:25:00,76.6,66.1,30.05,South,176,8.0,15.0,70,0.00,SCT,SCT,0.00,WeatherDisplay:10.37,2013-07-26 22:25:00,
2013-07-26 18:30:00,76.3,65.8,30.05,SSE,161,12.7,12.7,70,0.00,SCT,,0.00,WeatherDisplay:10.37,2013-07-26 22:30:00,
2013-07-26 18:35:00,76.2,65.3,30.05,South,170,9.0,15.0,69,0.00,SCT,SCT,0.00,WeatherDisplay:10.37,2013-07-26 22:35:00,
2013-07-26 18:40:00,76.2,65.3,30.05,South,172,9.0,16.0,69,0.00,SCT,SCT,0.00,WeatherDisplay:10.37,2013-07-26 22:40:00,
2013-07-26 18:45:00,76.2,65.7,30.05,SSE,162,12.7,12.7,70,0.00,SCT,,0.00,WeatherDisplay:10.37,2013-07-26 22:45:00,
2013-07-26 18:50:00,76.0,65.5,30.05,South,181,10.4,10.4,70,0.00,SCT,,0.00,WeatherDisplay:10.37,2013-07-26 22:50:00,
2013-07-26 18:55:00,75.9,65.4,30.05,SSE,158,11.5,11.5,70,0.00,SCT,,0.00,WeatherDisplay:10.37,2013-07-26 22:55:00,
2013-07-26 19:00:00,75.9,65.9,30.05,SSE,160,10.7,10.7,71,0.00,SCT,,0.00,WeatherDisplay:10.37,2013-07-26 23:00:00,
2013-07-26 19:05:00,75.9,65.9,30.05,WSW,253,13.8,13.8,71,0.00,SCT,,0.00,WeatherDisplay:10.37,2013-07-26 23:05:00,
2013-07-26 19:10:00,75.7,66.1,30.06,South,191,10.4,10.4,72,0.00,SCT,,0.00,WeatherDisplay:10.37,2013-07-26 23:10:00,
2013-07-26 19:15:00,75.6,66.0,30.06,South,185,9.2,9.2,72,0.00,SCT,,0.00,WeatherDisplay:10.37,2013-07-26 23:15:00,
2013-07-26 19:20:00,75.5,65.9,30.06,SSE,165,11.5,11.5,72,0.00,SCT,,0.00,WeatherDisplay:10.37,2013-07-26 23:20:00,
2013-07-26 19:25:00,75.2,66.0,30.06,SSE,158,8.1,8.1,73,0.00,SCT,,0.00,WeatherDisplay:10.37,2013-07-26 23:25:00,
2013-07-26 19:30:00,75.0,65.8,30.06,SSW,196,5.8,5.8,73,0.00,SCT,,0.00,WeatherDisplay:10.37,2013-07-26 23:30:00,
2013-07-26 19:35:00,74.8,66.0,30.06,South,174,7.3,7.3,74,0.00,SCT,,0.00,WeatherDisplay:10.37,2013-07-26 23:35:00,
2013-07-26 19:40:00,74.6,65.8,30.06,South,189,8.1,8.1,74,0.00,SCT,,0.00,WeatherDisplay:10.37,2013-07-26 23:40:00,
2013-07-26 19:45:00,74.5,66.1,30.06,South,178,6.9,6.9,75,0.00,SCT,,0.00,WeatherDisplay:10.37,2013-07-26 23:45:00,
2013-07-26 19:50:00,74.2,65.8,30.06,SSW,202,8.1,8.1,75,0.00,SCT,,0.00,WeatherDisplay:10.37,2013-07-26 23:50:00,
2013-07-26 19:55:00,73.9,65.5,30.06,SSE,168,9.2,9.2,75,0.00,SCT,,0.00,WeatherDisplay:10.37,2013-07-26 23:55:00,
2013-07-26 20:00:00,73.9,65.5,30.06,South,176,8.1,8.1,75,0.00,SCT,,0.00,WeatherDisplay:10.37,2013-07-27 00:00:00,
2013-07-26 20:05:00,73.9,65.9,30.06,SSE,165,8.1,8.1,76,0.00,BKN,SCT,0.00,WeatherDisplay:10.37,2013-07-27 00:05:00,
2013-07-26 20:10:00,73.9,65.9,30.06,South,182,8.1,8.1,76,0.00,BKN,SCT,0.00,WeatherDisplay:10.37,2013-07-27 00:10:00,
2013-07-26 20:15:00,73.9,65.9,30.06,South,185,5.8,5.8,76,0.00,BKN,SCT,0.00,WeatherDisplay:10.37,2013-07-27 00:15:00,
2013-07-26 20:20:00,73.8,65.8,30.06,South,174,9.2,9.2,76,0.00,BKN,SCT,0.00,WeatherDisplay:10.37,2013-07-27 00:20:00,
2013-07-26 20:25:00,73.8,65.4,30.05,South,174,10.4,10.4,75,0.00,BKN,SCT,0.00,WeatherDisplay:10.37,2013-07-27 00:25:00,
2013-07-26 20:30:00,73.7,65.3,30.06,SSE,158,10.4,10.4,75,0.00,BKN,SCT,0.00,WeatherDisplay:10.37,2013-07-27 00:30:00,
2013-07-26 20:35:00,73.6,65.2,30.06,SSW,208,8.1,8.1,75,0.00,BKN,SCT,0.00,WeatherDisplay:10.37,2013-07-27 00:35:00,
2013-07-26 20:40:00,73.7,65.3,30.06,SSW,212,12.7,12.7,75,0.00,BKN,SCT,0.00,WeatherDisplay:10.37,2013-07-27 00:40:00,
2013-07-26 20:45:00,73.7,65.3,30.06,South,191,9.2,9.2,75,0.00,BKN,SCT,0.00,WeatherDisplay:10.37,2013-07-27 00:45:00,
2013-07-26 20:50:00,73.7,65.3,30.06,SSW,196,6.9,6.9,75,0.00,BKN,SCT,0.00,WeatherDisplay:10.37,2013-07-27 00:50:00,
2013-07-26 20:55:00,73.7,65.3,30.06,SSW,206,4.6,4.6,75,0.00,BKN,SCT,0.00,WeatherDisplay:10.37,2013-07-27 00:55:00,
2013-07-26 21:00:00,73.7,65.3,30.06,South,171,4.6,4.9,75,0.00,BKN,SCT,0.00,WeatherDisplay:10.37,2013-07-27 01:00:00,
2013-07-26 21:05:00,73.6,65.6,30.06,South,176,8.1,8.1,76,0.00,SCT,,0.00,WeatherDisplay:10.37,2013-07-27 01:05:00,
2013-07-26 21:10:00,73.5,65.5,30.06,SSW,203,4.6,4.6,76,0.00,SCT,,0.00,WeatherDisplay:10.37,2013-07-27 01:10:00,
2013-07-26 21:15:00,73.4,65.4,30.06,South,181,5.8,5.8,76,0.00,SCT,,0.00,WeatherDisplay:10.37,2013-07-27 01:15:00,
2013-07-26 21:20:00,73.3,65.3,30.07,SSW,196,3.5,3.5,76,0.00,SCT,,0.00,WeatherDisplay:10.37,2013-07-27 01:20:00,
2013-07-26 21:25:00,73.5,65.5,30.07,SSW,199,2.3,2.3,76,0.00,SCT,,0.00,WeatherDisplay:10.37,2013-07-27 01:25:00,
2013-07-26 21:30:00,73.4,65.4,30.07,SSE,160,2.3,2.3,76,0.00,SCT,,0.00,WeatherDisplay:10.37,2013-07-27 01:30:00,
2013-07-26 21:35:00,73.4,65.4,30.07,SSW,202,4.6,4.6,76,0.00,SCT,,0.00,WeatherDisplay:10.37,2013-07-27 01:35:00,
2013-07-26 21:40:00,73.2,65.6,30.07,SSE,168,5.2,5.2,77,0.00,SCT,,0.00,WeatherDisplay:10.37,2013-07-27 01:40:00,
2013-07-26 21:45:00,73.0,65.4,30.07,South,176,6.9,6.9,77,0.00,SCT,,0.00,WeatherDisplay:10.37,2013-07-27 01:45:00,
2013-07-26 21:50:00,72.9,65.3,30.08,South,171,8.1,8.1,77,0.00,SCT,,0.00,WeatherDisplay:10.37,2013-07-27 01:50:00,
2013-07-26 21:55:00,72.8,65.6,30.08,South,176,6.9,6.9,78,0.00,SCT,,0.00,WeatherDisplay:10.37,2013-07-27 01:55:00,
2013-07-26 22:00:00,72.8,65.2,30.08,SSW,192,9.2,9.2,77,0.00,SCT,,0.00,WeatherDisplay:10.37,2013-07-27 02:00:00,
2013-07-26 22:05:00,72.7,65.5,30.08,South,172,4.6,4.6,78,0.00,BKN,SCT,0.00,WeatherDisplay:10.37,2013-07-27 02:05:00,
2013-07-26 22:10:00,72.7,65.1,30.08,South,182,8.1,8.1,77,0.00,BKN,SCT,0.00,WeatherDisplay:10.37,2013-07-27 02:10:00,
2013-07-26 22:15:00,72.7,65.1,30.08,SSW,208,6.9,6.9,77,0.00,BKN,SCT,0.00,WeatherDisplay:10.37,2013-07-27 02:15:00,
2013-07-26 22:20:00,72.7,65.1,30.08,South,171,4.6,4.6,77,0.00,BKN,SCT,0.00,WeatherDisplay:10.37,2013-07-27 02:20:00,
2013-07-26 22:25:00,72.6,65.0,30.08,South,181,4.6,4.6,77,0.00,BKN,SCT,0.00,WeatherDisplay:10.37,2013-07-27 02:25:00,
2013-07-26 22:30:00,72.6,65.0,30.08,SSW,195,4.8,4.8,77,0.00,BKN,SCT,0.00,WeatherDisplay:10.37,2013-07-27 02:30:00,
2013-07-26 22:35:00,72.5,65.3,30.08,South,174,4.6,4.6,78,0.00,BKN,SCT,0.00,WeatherDisplay:10.37,2013-07-27 02:35:00,
2013-07-26 22:40:00,72.4,65.2,30.08,SSW,198,5.8,5.8,78,0.00,BKN,SCT,0.00,WeatherDisplay:10.37,2013-07-27 02:40:00,
2013-07-26 22:45:00,72.2,65.0,30.08,South,174,6.2,6.2,78,0.00,BKN,SCT,0.00,WeatherDisplay:10.37,2013-07-27 02:45:00,
2013-07-26 22:50:00,72.2,65.4,30.08,South,169,7.6,7.6,79,0.00,BKN,SCT,0.00,WeatherDisplay:10.37,2013-07-27 02:50:00,
2013-07-26 22:55:00,71.9,65.1,30.08,SSE,148,8.8,8.8,79,0.00,BKN,SCT,0.00,WeatherDisplay:10.37,2013-07-27 02:55:00,
2013-07-26 23:00:00,71.9,65.1,30.08,SSW,199,8.1,8.1,79,0.00,BKN,SCT,0.00,WeatherDisplay:10.37,2013-07-27 03:00:00,
2013-07-26 23:05:00,71.8,65.0,30.08,South,182,10.4,10.4,79,0.00,OVC,SCT,0.00,WeatherDisplay:10.37,2013-07-27 03:05:00,
2013-07-26 23:10:00,71.8,65.0,30.08,South,169,8.1,8.1,79,0.00,OVC,SCT,0.00,WeatherDisplay:10.37,2013-07-27 03:10:00,
2013-07-26 23:15:00,71.8,65.3,30.08,SSW,196,4.1,4.1,80,0.00,OVC,SCT,0.00,WeatherDisplay:10.37,2013-07-27 03:15:00,
2013-07-26 23:20:00,71.6,65.1,30.08,South,184,3.5,3.7,80,0.00,OVC,SCT,0.00,WeatherDisplay:10.37,2013-07-27 03:20:00,
2013-07-26 23:25:00,71.7,65.2,30.08,South,181,3.7,3.7,80,0.00,OVC,SCT,0.00,WeatherDisplay:10.37,2013-07-27 03:25:00,
2013-07-26 23:30:00,71.6,65.1,30.08,WSW,246,3.5,3.5,80,0.00,OVC,SCT,0.00,WeatherDisplay:10.37,2013-07-27 03:30:00,
2013-07-26 23:35:00,71.5,65.0,30.08,South,182,7.2,7.2,80,0.00,OVC,SCT,0.00,WeatherDisplay:10.37,2013-07-27 03:35:00,
2013-07-26 23:40:00,71.4,64.9,30.08,SSE,151,6.9,6.9,80,0.00,OVC,SCT,0.00,WeatherDisplay:10.37,2013-07-27 03:40:00,
2013-07-26 23:45:00,71.3,65.2,30.08,South,169,6.9,6.9,81,0.00,OVC,SCT,0.00,WeatherDisplay:10.37,2013-07-27 03:45:00,
2013-07-26 23:50:00,71.1,65.4,30.08,South,189,6.9,6.9,82,0.00,OVC,SCT,0.00,WeatherDisplay:10.37,2013-07-27 03:50:00,
2013-07-26 23:55:00,71.1,65.4,30.08,South,186,9.2,9.2,82,0.00,OVC,SCT,0.00,WeatherDisplay:10.37,2013-07-27 03:55:00,